Location: Melbourne
(37.8666°S, 145.1333°E)
Time: 10:21:34
(UTC+10:00)

Daily predictions for brighter satellites

Satellite Brightness Start Highest point End
(mag) Time Altitude Azimuth Time Altitude Azimuth Time Altitude Azimuth
CSL-04 Debris 4.4 17:27:27 10° SSE 17:32:55 54° E 17:38:18 10° N
Cosmos 2084 3.8 17:30:58 10° NNW 17:35:49 85° ENE 17:40:46 10° SE
Cosmos 1842 3.4 17:33:22 10° S 17:37:24 83° W 17:41:20 10° N
IRS-1A Rocket 4.5 17:39:15 10° SSE 17:45:12 64° ENE 17:51:01 10° N
USA 215 3.4 17:41:21 10° SE 17:47:56 66° NE 17:54:28 10° NW
Cosmos 968 Rocket 4.0 17:50:43 10° S 17:55:26 35° ESE 18:00:07 10° NE
Cosmos 2228 4.2 17:55:09 10° NNW 17:59:15 44° W 18:03:24 10° S
MOS 1 Rocket 3.6 17:56:00 10° S 18:00:21 61° WSW 18:04:36 10° NNW
Cosmos 1812 Rocket 3.5 17:56:03 10° N 18:00:30 78° E 18:04:59 10° S
Ariane Rocket 4.1 17:56:44 10° S 18:01:36 45° WSW 18:06:27 10° NW
Meteor 1-28 Rocket 3.6 17:58:27 10° NE 18:02:01 40° ESE 18:05:40 10° S
ERBS 3.3 17:59:27 10° SSW 18:02:44 31° SE 18:05:41 12° ENE
USA 229 DEB 4.3 17:57:00 10° SW 18:03:58 65° WNW 18:10:48 10° NNE
USA 229 4.2 17:57:06 10° SW 18:04:04 66° WNW 18:10:55 10° NNE
Cosmos 1340 2.9 18:01:20 10° SSW 18:05:12 76° W 18:09:02 10° N
Meteor 1-29 2.9 18:02:54 10° NNE 18:06:20 69° ESE 18:09:47 10° S
AVUM R/B 3.3 18:05:26 10° S 18:07:33 26° ESE 18:08:18 21° E
deb Kosmos-1763 4.2 18:04:35 10° S 18:08:26 57° ESE 18:12:13 10° NNE
Cosmos 1707 3.3 18:06:29 10° S 18:10:14 37° ESE 18:13:55 10° NNE
Meteor 1-24 Rocket 4.4 18:06:59 10° S 18:12:36 37° ESE 18:18:03 10° NE
Cosmos 2263 4.4 18:08:17 10° NNW 18:14:04 78° WSW 18:19:57 10° SSE
PSLV R/B 3.3 18:13:59 10° WNW 18:17:26 82° NNE 18:19:23 25° ESE
Cosmos 2369 Rocket 3.1 18:14:30 10° NW 18:19:55 49° WSW 18:25:26 10° SSE
Cosmos 1656 Rocket 4.4 18:18:57 10° NNE 18:23:39 31° ENE 18:26:08 21° ESE
NOSS 3-1 (A) 3.6 18:18:31 10° SSW 18:24:49 50° SE 18:30:31 10° NE
Cosmos 1408 Rocket 4.4 18:23:33 10° SSE 18:27:31 29° ESE 18:31:26 10° NE
Cosmos 1833 4.3 18:23:23 10° SSW 18:29:08 55° ESE 18:34:49 10° NE
Okean 3 Rocket 3.5 18:26:48 10° S 18:31:17 75° E 18:35:44 10° NNE
IDEFIX/ARIANE 42P 3.1 18:30:20 19° SE 18:33:32 36° E 18:38:22 10° NNE
Cosmos 1777 Rocket 4.2 18:28:28 10° S 18:33:39 48° ESE 18:38:46 10° NE
Cosmos 1634 Rocket 4.1 18:29:57 10° NNE 18:36:09 57° E 18:42:23 10° SSE
SJ-7 4.5 18:34:48 18° SSE 18:37:47 58° E 18:41:52 10° N
Cosmos 1076 Rocket 3.9 18:35:48 10° S 18:39:52 38° ESE 18:43:51 10° NNE
SAR-Lupe-4 3.9 18:39:41 40° E 18:39:58 41° E 18:43:24 10° N
YAOGAN 1 2.6 18:35:53 10° SSE 18:40:19 85° WSW 18:44:41 10° NNW
CZ-4 R/B 2.1 18:36:27 10° S 18:40:26 53° WSW 18:44:17 10° NNW
CZ-2C R/B 2.5 18:38:02 17° SSE 18:41:50 52° E 18:46:34 10° N
Radarsat 4.5 18:38:09 10° SSE 18:43:27 78° ENE 18:48:40 10° N
ATLAS 2AS CENTAUR R/B 3.3 18:40:14 10° SSW 18:45:23 28° SE 18:45:48 28° SE
Nadezhda 4 Rocket 4.3 18:39:44 10° S 18:46:08 73° W 18:52:27 10° N
Orbus 7S? 2.8 18:45:34 10° SW 18:48:16 88° NW 18:51:24 16° NE
CZ-4 R/B 4.4 18:46:43 18° SSE 18:49:47 86° ENE 18:53:59 10° NNW
Meteor 2-5 Rocket 4.4 18:44:16 10° SSW 18:50:06 60° W 18:55:48 10° N
PAYLOAD A 4.2 18:44:42 10° SSE 18:50:14 85° WSW 18:55:35 10° NNW
Cosmos 2142 Rocket 4.4 18:45:22 10° N 18:51:32 73° E 18:57:52 10° S
MONITOR-E 4.4 18:54:47 61° NNE 18:54:47 61° NNE 18:57:40 10° N
SMAP 3.3 18:52:54 10° S 18:57:36 69° WSW 19:02:15 10° NNW
Cosmos 1953 4.0 18:56:06 10° NNE 18:57:41 21° NNE 18:57:41 21° NNE
Abrixas rocket 3.9 18:59:30 10° SW 19:01:30 27° SSW 19:01:30 27° SSW
Cosmos 1092 Rocket 4.3 18:58:38 10° SSW 19:05:01 71° W 19:11:16 10° N
Meteor 1-22 Rocket 4.5 19:01:31 10° NNW 19:07:27 73° W 19:13:13 10° S
CORIOLIS 4.4 19:02:42 10° S 19:08:08 71° WSW 19:13:31 10° NNW
SL-8 R/B 3.8 19:04:14 10° WNW 19:09:06 69° SSW 19:09:59 55° SSE
Cosmos 1943 Rocket 3.1 19:06:16 10° NW 19:11:43 46° WSW 19:16:06 16° S
NOSS 3-1 (C) 3.9 19:06:22 10° SW 19:12:34 58° WNW 19:18:13 10° NNE
Cosmos 405 Rocket 3.8 19:10:46 10° SSW 19:14:29 44° W 19:18:05 10° NNW
Cosmos 1766 3.7 19:11:00 10° NNW 19:14:53 60° W 19:15:42 47° SSW
Cosmos 2219 3.1 19:13:29 10° SSW 19:19:14 75° ESE 19:21:11 43° NE
Atlas Centaur 2 3.1 19:16:01 10° NW 19:19:14 25° NNE 19:19:14 25° NNE
Cosmos 2026 Rocket 3.8 19:15:23 10° S 19:21:35 86° E 19:27:40 10° N
USA 215 4.2 19:27:42 26° SSE 19:30:38 39° SSW 19:36:38 10° W
Cosmos 1655 Rocket 4.4 19:40:56 10° SSW 19:47:14 62° W 19:53:24 10° N
MSX 4.0 19:52:30 65° SW 19:52:48 67° WSW 19:58:31 10° NNW
Milstar 3 Cent rocket 4.3 20:02:28 10° NW 20:10:12 26° N 20:10:12 26° N
IDEFIX/ARIANE 42P 4.5 20:11:08 22° SW 20:12:56 26° WSW 20:17:15 10° WNW
ATLAS CENTAUR R/B 4.2 19:53:53 10° NNW 20:18:13 79° NE 20:18:53 76° E
ATLAS 2AS CENTAUR R/B 4.1 20:30:30 10° SW 20:33:17 28° SW 20:33:17 28° SW
